Home > Weather > Mosjøen > Past weeks

Flag for Norway Past Weather in Mosjøen, Norway — Yesterday and Last 2 Weeks

Now
52 °F

Cool.


Feels Like: 49 °F
Forecast: 43 / 54 °F
Wind: 8 mph from North

Location: Mosjoen Kjaerstad

Current Time: Aug 27, 2016 at 10:36:54 AM

Latest Report: Aug 27, 2016 at 9:00 AM


Visibility: N/A

Pressure: 29.44 "Hg

Humidity: 81%

Dew Point: 46 °F

Location of MosjøenLocation

Past Weather in Mosjøen — Graph

°F

Mosjøen Temperature Yesterday

Maximum temperature yesterday: 61 °F (at 1:00 PM)
Minimum temperature yesterday: 48 °F (at 6:00 AM)
Average temperature yesterday: 54 °F

High & Low Weather Summary for the Past Weeks

 TemperatureHumidityPressure
High74 °F (Aug 22, 4:00 PM)96% (Aug 16, 9:00 AM)30.29 "Hg (Aug 16, 9:00 AM)
Low37 °F (Aug 16, 5:00 AM)40% (Aug 17, 7:00 PM)29.21 "Hg (Aug 27, 4:00 AM)
Average54 °F78%29.98 "Hg
* Reported Aug 12 9:00 AM — Aug 27 9:00 AM, Mosjøen, Weather by CustomWeather, © 2016

Note: Actual official high and low records may vary slightly from our data, if they occured in-between our weather recording intervals... More about our weather records

Advertising

Mosjøen Weather History for the Previous 24 Hours

Scroll right to see more
 ConditionsComfort  
Time TempWeatherWind HumidityBarometerVisibility
9:00 AM
Sat, Aug 27
52 °FCool.8 mph81%29.44 "HgN/A
8:00 AM51 °FCool.3 mph81%29.41 "HgN/A
6:00 AM51 °FCool.5 mph91%29.26 "HgN/A
5:00 AM53 °FCool.6 mph88%29.23 "HgN/A
4:00 AM54 °FCool.5 mph83%29.21 "HgN/A
3:00 AM53 °FCool.2 mph88%29.23 "HgN/A
2:00 AM53 °FCool.3 mph86%29.26 "HgN/A
1:00 AM55 °FCool.3 mph80%29.29 "HgN/A
12:00 AM54 °FCool.3 mph82%29.35 "HgN/A
11:00 PM
Fri, Aug 26
54 °FCool.5 mph81%29.41 "HgN/A
10:00 PM52 °FCool.5 mph85%29.47 "HgN/A
9:00 PM53 °FCool.5 mph86%29.56 "HgN/A
8:00 PM56 °FCool.5 mph74%29.60 "HgN/A
7:00 PM58 °FCool.3 mph64%29.64 "HgN/A
6:00 PM59 °FRefreshingly cool.7 mph59%29.68 "HgN/A
5:00 PM59 °FRefreshingly cool.3 mph60%29.74 "HgN/A
4:00 PM60 °FRefreshingly cool.1 mph59%29.79 "HgN/A
3:00 PM61 °FRefreshingly cool.2 mph52%29.84 "HgN/A
2:00 PM61 °FRefreshingly cool.3 mph52%29.89 "HgN/A
1:00 PM61 °FRefreshingly cool.3 mph48%29.92 "HgN/A
12:00 PM60 °FRefreshingly cool.2 mph51%29.95 "HgN/A
11:00 AM58 °FCool.1 mph66%30.00 "HgN/A
10:00 AM55 °FCool.2 mph77%30.01 "HgN/A
Weather by CustomWeather, © 2016

See weather overviewHow to use our weather pages